Regional Weather Roundup
Issued by NWS

Home | Current Version | Previous Version | Text Only | Print | Product List | Glossary Off
Versions: 1 2 3 4 5 6 7 8 9 10 11 12 13 14 15 16 17 18 19 20 21 22 23 24 25 26 27 28 29 30 31 32 33 34 35 36 37 38 39 40 41 42 43 44 45 46 47 48 49 50

000
ASUS43 KDTX 180201
RWRMI
MICHIGAN HOURLY REGIONAL WEATHER ROUNDUP
NATIONAL WEATHER SERVICE DETROIT/PONTIAC MI
1000 PM EDT WED SEP 17 2014

NOTE: "FAIR" INDICATES FEW OR NO CLOUDS BELOW 12,000 FEET WITH NO
SIGNIFICANT WEATHER AND/OR OBSTRUCTION TO VISIBILITY.

MIZ047>049-052>055-059>063-066>070-074>076-081>083-180300-
SOUTHEAST LOWER MICHIGAN

CITY           SKY/WX    TMP DP  RH WIND       PRES   REMARKS
ADRIAN         CLEAR     51  47  86 CALM      30.01R
ALMA           CLEAR     48  46  93 CALM      30.01R
ANN ARBOR      CLEAR     45  42  89 CALM      30.00R
BAD AXE        CLEAR     47  46  97 CALM      29.98S
CARO           CLEAR     47  47  98 CALM      29.98R FOG
DETROIT CITY   CLEAR     59  47  64 CALM      29.99S
DETROIT        PTCLDY    59  46  62 CALM      30.00R
FLINT          CLEAR     50  46  86 SW3       30.00R
GROSSE ILE     CLEAR     55  48  76 CALM      29.98S
HILLSDALE      CLEAR     47  46  98 CALM      30.01R
HOWELL         CLEAR     52  47  84 CALM      30.00S

CITY           SKY/WX    TMP DP  RH WIND       PRES   REMARKS
JACKSON        CLEAR     49  46  90 CALM      30.01R
LAMBERTVILLE   CLOUDY    54  50  87 CALM      30.00S
LANSING        CLEAR     52  47  83 CALM      30.02R
LAPEER         FAIR      47  46  95 CALM      30.00R
MASON          CLEAR     49  48  95 CALM      30.01R
MONROE         CLEAR     52  46  82 CALM      29.98S
MT. CLEMENS    CLEAR     52  46  79 W2        29.98S
PONTIAC        PTCLDY    52  46  80 CALM      30.00R
PORT HOPE        N/A     55  46  71 SW5       29.96R
PORT HURON     CLEAR     46  46 100 CALM      29.99S FOG
TRI CITIES     CLEAR     56  49  77 W7        30.00R
TROY           CLEAR     58  45  60 CALM      30.01R
SAGINAW HB     CLEAR     55  50  82 W5        29.99R
$$
MIZ043>046-050>051-056>058-064>065-071>073-077>080-180300-
SOUTHWEST LOWER MICHIGAN

CITY           SKY/WX    TMP DP  RH WIND       PRES   REMARKS
BATTLE CREEK   CLEAR     53  47  79 CALM      30.02R
BENTON HARBOR  CLEAR     48  46  93 CALM      30.01R
BIG RAPIDS     CLEAR     48  47  96 CALM      30.01R
COLDWATER      CLEAR     51  48  90 CALM      30.01R
FREMONT        FAIR      49  46  90 CALM      30.01R
HOLLAND        CLEAR     49  47  93 CALM      30.02R
GRAND RAPIDS   CLEAR     53  46  77 CALM      30.02R
IONIA          FAIR      53  46  78 W3        30.01R
KALAMAZOO      CLEAR     51  46  83 CALM      30.02R
LUDINGTON      CLEAR     49  48  94 CALM      30.01R
MARSHALL       CLEAR     49  45  87 CALM      30.01R
MOUNT PLEASANT CLEAR     50  48  93 W3        30.00R
MUSKEGON       PTCLDY    52  47  83 S3        30.01R
SOUTH HAVEN    CLEAR     48  47  96 CALM      30.02R
$$
MIZ016>042-180300-
NORTHERN LOWER MICHIGAN

CITY           SKY/WX    TMP DP  RH WIND       PRES   REMARKS
ALPENA         MOCLDY    53  48  83 N9        30.01R
BEAVER ISLAND  CLOUDY    48  43  82 N8        30.06R
BELLAIRE       PTCLDY    54  47  78 N8        30.02R
CADILLAC       CLEAR     46  45  98 CALM      30.00R
CHARLEVOIX     CLOUDY    54  46  76 N12G20    30.06R
FRANKFORT      MOCLDY    55  51  85 CALM      30.00R
GAYLORD        PTCLDY    51  47  86 N5        30.02R
GRAYLING       CLEAR     49  48  99 CALM      30.01R
HARBOR SPRINGS CLOUDY    53  46  77 NE5       30.04R
HOUGHTON LAKE  CLEAR     48  44  86 NW3       30.00R
MANISTEE       PTCLDY    50  46  87 CALM      30.00S
OSCODA         PTCLDY    53  47  80 NW7       29.97R
PELLSTON       CLOUDY    50  47  89 N12       30.04R
ROGERS CITY    LGT RAIN  51  50  96 N7        30.03R
TRAVERSE CITY  MOCLDY    57  50  77 N9        30.01R
$$
MIZ007>008-015-180300-
EASTERN UPPER MICHIGAN

CITY           SKY/WX    TMP DP  RH WIND       PRES   REMARKS
KINROSS        CLOUDY    46  43  87 NE8       30.04R
MACKINAC ISLAN CLOUDY    48  43  81 N9        30.04R
NEWBERRY       CLOUDY    42  40  91 N7        30.06R
S. S. MARIE    CLOUDY    45  38  76 NE6       30.05R
$$
MIZ004>006-011>014-085-180300-
CENTRAL UPPER MICHIGAN

CITY           SKY/WX    TMP DP  RH WIND       PRES   REMARKS
MANISTIQUE     PTCLDY    41  38  86 N7        30.08R
ESCANABA       CLOUDY    45  37  76 N9G17     30.09R
MENOMINEE      CLOUDY    50  43  76 NE14      30.05R
SAWYER-GWINN   CLOUDY    41  36  81 N13G20    30.10R
$$
MIZ001>003-009>011-084-180300-
WESTERN UPPER MICHIGAN

CITY           SKY/WX    TMP DP  RH WIND       PRES   REMARKS
IRON MOUNTAIN  CLOUDY    46  40  79 N8        30.07R
HOUGHTON       CLEAR     35  31  85 NE3       30.13R
COPPER HARBOR    N/A     44  35  70 E14       30.14R
IRONWOOD       CLOUDY    43  43 100 NE9       30.09R
$$

ABBREVIATIONS USED IN REMARKS
   TC - TEMPERATURE IN CELSIUS
  WCI - WIND CHILL INDEX
   HX - HEAT INDEX
  VSB - VISIBILITY




USA.gov is the U.S. government's official web portal to all federal, state and local government web resources and services.